Location: Eboldshausen
(51.7766°N, 10.0050°E)
Time: 07:21:16
(UTC+00:00)

SL-12 R/B(2) - Pass Details

Date: 15 November 2025
Orbit: 1173 x 2175 km, 63.4° (Epoch: 13 December)

Event Time Altitude Azimuth Distance (km) Brightness Sun altitude
Rises 17:21:18 0° 207° (SSW) 4,193 7.3 -17.1°
Reaches altitude 10° 17:23:54 10° 205° (SSW) 3,305 6.7 -17.5°
Maximum altitude 17:31:48 66° 125° (SE) 1,589 4.3 -18.7°
Enters shadow 17:39:14 19° 49° (NE) 3,283 5.8 -19.9°
